Miscellaneous Local Product
Issued by NWS Hastings, NE

Home | Current Version | Previous Version | Text Only | Print | Product List | Glossary Off
Versions: 1 2 3 4 5 6 7 8 9 10 11 12 13 14 15 16 17 18 19 20 21 22 23 24 25 26 27 28 29 30 31 32 33 34 35 36 37 38 39 40 41 42 43 44 45 46 47 48 49 50

000
AXUS43 KGID 232302
MISGRI

GID CWA HOURLY WEATHER ROUNDUP
NATIONAL WEATHER SERVICE HASTINGS NE
500 PM CST FRI JAN 23 2015

NOTE: "FAIR" INDICATES FEW OR NO CLOUDS BELOW 12,000 FEET WITH NO
SIGNIFICANT WEATHER AND/OR OBSTRUCTIONS TO VISIBILITY.

...SOUTH CENTRAL NEBRASKA...

CITY           SKY/WX    TMP DP  RH WIND       PRES   REMARKS
GRAND ISLAND   MOCLDY    48  27  44 N17       30.01R
HASTINGS       MOCLDY    49  25  39 N14       30.00R
KEARNEY        CLOUDY    48  27  43 NW14      30.02R
ORD            PTCLDY    47  29  49 N17G26    30.03R
YORK           CLOUDY    45  27  49 N5        29.99R
AURORA         CLOUDY    48  27  43 N13       29.99R
LEXINGTON      CLOUDY    49  29  46 N16       30.04S
HOLDREGE       CLOUDY    49  27  42 N10G17    30.02R
HEBRON         CLOUDY    46  18  33 CALM      30.00R

...NEBRASKA PANHANDLE...

CITY           SKY/WX    TMP DP  RH WIND       PRES   REMARKS
CHADRON        CLOUDY    42  28  57 NW15      30.16S
ALLIANCE       MOCLDY    40  28  62 NW12      30.15R WCI  33
SCOTTSBLUFF    CLOUDY    41  29  62 NW9       30.19R
SIDNEY         CLOUDY    42  27  55 NW13      30.18R

...WESTERN AND NORTH CENTRAL NEBRASKA...

CITY           SKY/WX    TMP DP  RH WIND       PRES   REMARKS
VALENTINE      CLEAR     47  29  49 NW10      30.09R
AINSWORTH      CLEAR     45  30  56 N16G22    30.07R
ONEILL         CLEAR     46  33  61 NW13      30.04R
BROKEN BOW     PTCLDY    48  30  49 N18       30.05R
IMPERIAL       CLOUDY    46  26  45 NW17      30.12R
NORTH PLATTE   CLOUDY    49  26  41 N16G25    30.09R
MCCOOK         CLOUDY    52  26  36 N13       30.07R

...EASTERN NEBRASKA...

CITY           SKY/WX    TMP DP  RH WIND       PRES   REMARKS
NORFOLK        CLEAR     45  29  53 NW21G26   29.99R
SO SIOUX CITY  CLEAR     44  30  57 NW16      29.96S
TEKAMAH        CLEAR     43  28  55 W5        29.98R
COLUMBUS       PTCLDY    46  27  46 NW12      30.00R
ALBION         PTCLDY    46  29  51 N14G21    30.00R
OMAHA EPPLEY   MOCLDY    46  24  42 NW10      29.98R
OFFUTT AFB     CLOUDY    46  23  41 W7        29.97S
MILLARD        CLOUDY    46  25  43 W10       29.98R
LINCOLN        CLOUDY    44  23  43 W5        30.00R
NEBRASKA CITY  CLOUDY    46  13  25 SW7       29.98R
BEATRICE       CLOUDY    46  19  35 W7        29.99R
FALLS CITY     CLOUDY    47  17  30 SW9       29.99S

...NORTHERN KANSAS...

CITY           SKY/WX    TMP DP  RH WIND       PRES   REMARKS
GOODLAND       CLEAR     46  26  45 N22G32    30.11R
HILL CITY      MOCLDY    52  22  30 N13       30.04R
NORTON         CLOUDY    48  21  34 NW10      30.02S
PHILLIPSBURG   PTCLDY    54  27  35 NW13G18   30.03R
SMITH CENTER   CLEAR     48  25  40 NW8       30.02R
BELOIT         CLOUDY    46  19  34 W3        30.01S
HAYS           CLOUDY    50  19  29 NW9       30.03R
RUSSELL        MOCLDY    49  18  29 NW12      30.01R
CONCORDIA      CLOUDY    45  20  36 W7        30.00R
SALINA         CLOUDY    51  15  23 W12       30.01S
TOPEKA         CLOUDY    49  18  29 SW7       30.01F



USA.gov is the U.S. government's official web portal to all federal, state and local government web resources and services.